TimeMST,TemperatureF,Dew PointF,Humidity,Sea Level PressureIn,VisibilityMPH,Wind Direction,Wind SpeedMPH,Gust SpeedMPH,PrecipitationIn,Events,Conditions,WindDirDegrees,DateUTC
12:15 AM,37.4,10.4,33,30.25,10.0,North,11.5,-,N/A,,Clear,350,2012-11-15 07:15:00
12:35 AM,37.4,10.4,33,30.24,10.0,North,10.4,-,N/A,,Clear,360,2012-11-15 07:35:00
12:55 AM,37.4,10.4,33,30.24,10.0,North,10.4,-,N/A,,Clear,360,2012-11-15 07:55:00
1:15 AM,37.4,10.4,33,30.24,10.0,North,11.5,-,N/A,,Clear,360,2012-11-15 08:15:00
1:35 AM,35.6,10.4,35,30.24,10.0,North,10.4,-,N/A,,Clear,360,2012-11-15 08:35:00
1:55 AM,35.6,10.4,35,30.24,10.0,North,11.5,-,N/A,,Clear,360,2012-11-15 08:55:00
2:15 AM,37.4,10.4,33,30.23,10.0,North,11.5,-,N/A,,Clear,360,2012-11-15 09:15:00
2:35 AM,35.6,10.4,35,30.24,10.0,North,11.5,-,N/A,,Clear,360,2012-11-15 09:35:00
2:55 AM,35.6,10.4,35,30.23,10.0,North,11.5,-,N/A,,Clear,360,2012-11-15 09:55:00
3:15 AM,35.6,10.4,35,30.23,10.0,North,10.4,-,N/A,,Clear,360,2012-11-15 10:15:00
3:35 AM,35.6,10.4,35,30.23,10.0,North,11.5,-,N/A,,Clear,360,2012-11-15 10:35:00
3:55 AM,35.6,10.4,35,30.22,10.0,North,10.4,-,N/A,,Clear,360,2012-11-15 10:55:00
4:15 AM,32.0,10.4,41,30.22,10.0,NNW,9.2,-,N/A,,Clear,340,2012-11-15 11:15:00
4:35 AM,32.0,10.4,41,30.22,10.0,North,10.4,-,N/A,,Clear,350,2012-11-15 11:35:00
4:55 AM,32.0,10.4,41,30.22,10.0,North,9.2,-,N/A,,Clear,360,2012-11-15 11:55:00
5:15 AM,35.6,12.2,38,30.23,10.0,North,10.4,-,N/A,,Clear,360,2012-11-15 12:15:00
5:35 AM,35.6,12.2,38,30.23,10.0,North,9.2,-,N/A,,Clear,360,2012-11-15 12:35:00
5:55 AM,32.0,10.4,41,30.24,10.0,NNW,9.2,-,N/A,,Clear,330,2012-11-15 12:55:00
6:15 AM,32.0,10.4,41,30.25,10.0,NNW,9.2,-,N/A,,Clear,340,2012-11-15 13:15:00
6:35 AM,32.0,10.4,41,30.26,10.0,NNW,9.2,-,N/A,,Clear,340,2012-11-15 13:35:00
6:55 AM,33.8,8.6,35,30.26,10.0,North,10.4,-,N/A,,Clear,350,2012-11-15 13:55:00
7:15 AM,35.6,10.4,35,30.27,10.0,NNW,9.2,-,N/A,,Clear,340,2012-11-15 14:15:00
7:35 AM,39.2,10.4,31,30.27,10.0,NNW,9.2,-,N/A,,Clear,330,2012-11-15 14:35:00
7:55 AM,46.4,10.4,23,30.27,10.0,NNW,5.8,-,N/A,,Clear,340,2012-11-15 14:55:00
8:15 AM,50.0,10.4,20,30.28,10.0,NNW,5.8,-,N/A,,Clear,330,2012-11-15 15:15:00
8:35 AM,53.6,10.4,18,30.28,10.0,Calm,Calm,-,N/A,,Clear,0,2012-11-15 15:35:00
8:55 AM,55.4,14.0,20,30.28,10.0,Calm,Calm,-,N/A,,Clear,0,2012-11-15 15:55:00
9:15 AM,57.2,14.0,18,30.29,10.0,SE,3.5,-,N/A,,Clear,130,2012-11-15 16:15:00
9:35 AM,59.0,15.8,19,30.31,10.0,Calm,Calm,-,N/A,,Clear,0,2012-11-15 16:35:00
9:55 AM,59.0,15.8,19,30.31,9.0,South,4.6,-,N/A,,Clear,180,2012-11-15 16:55:00
10:15 AM,60.8,12.2,15,30.30,10.0,SSE,5.8,-,N/A,,Clear,150,2012-11-15 17:15:00
10:35 AM,60.8,12.2,15,30.29,10.0,SSE,6.9,-,N/A,,Clear,160,2012-11-15 17:35:00
10:55 AM,62.6,14.0,15,30.28,10.0,SSE,4.6,-,N/A,,Clear,160,2012-11-15 17:55:00
11:15 AM,62.6,14.0,15,30.28,10.0,SSE,5.8,-,N/A,,Clear,160,2012-11-15 18:15:00
11:35 AM,64.4,14.0,14,30.28,10.0,South,8.1,-,N/A,,Clear,190,2012-11-15 18:35:00
11:55 AM,64.4,14.0,14,30.27,10.0,South,8.1,-,N/A,,Clear,190,2012-11-15 18:55:00
12:15 PM,64.4,12.2,13,30.26,10.0,SE,8.1,-,N/A,,Clear,140,2012-11-15 19:15:00
12:35 PM,64.4,10.4,12,30.26,10.0,South,8.1,-,N/A,,Clear,170,2012-11-15 19:35:00
12:55 PM,64.4,10.4,12,30.26,10.0,South,6.9,-,N/A,,Clear,180,2012-11-15 19:55:00
1:15 PM,64.4,14.0,14,30.27,10.0,South,11.5,-,N/A,,Clear,170,2012-11-15 20:15:00
1:35 PM,64.4,14.0,14,30.26,10.0,South,10.4,-,N/A,,Clear,170,2012-11-15 20:35:00
1:55 PM,62.6,14.0,15,30.26,10.0,SSE,10.4,-,N/A,,Clear,160,2012-11-15 20:55:00
2:15 PM,62.6,14.0,15,30.27,10.0,SSW,8.1,-,N/A,,Clear,200,2012-11-15 21:15:00
2:35 PM,62.6,14.0,15,30.26,10.0,South,6.9,-,N/A,,Clear,170,2012-11-15 21:35:00
2:55 PM,62.6,14.0,15,30.26,10.0,SSE,8.1,-,N/A,,Clear,160,2012-11-15 21:55:00
3:15 PM,62.6,14.0,15,30.26,10.0,SSE,4.6,-,N/A,,Clear,160,2012-11-15 22:15:00
3:55 PM,62.6,10.4,13,30.26,10.0,SSE,5.8,-,N/A,,Clear,160,2012-11-15 22:55:00
4:15 PM,62.6,10.4,13,30.26,10.0,SSE,5.8,-,N/A,,Clear,160,2012-11-15 23:15:00
4:55 PM,59.0,8.6,14,30.26,10.0,SSE,3.5,-,N/A,,Clear,150,2012-11-15 23:55:00
5:15 PM,59.0,8.6,14,30.27,10.0,SE,3.5,-,N/A,,Clear,140,2012-11-16 00:15:00
5:35 PM,57.2,8.6,14,30.27,10.0,SE,4.6,-,N/A,,Clear,140,2012-11-16 00:35:00
5:55 PM,57.2,8.6,14,30.28,10.0,SE,3.5,-,N/A,,Partly Cloudy,130,2012-11-16 00:55:00
6:35 PM,55.4,8.6,15,30.29,10.0,ESE,3.5,-,N/A,,Overcast,110,2012-11-16 01:35:00
6:55 PM,53.6,12.2,19,30.29,10.0,Calm,Calm,-,N/A,,Mostly Cloudy,0,2012-11-16 01:55:00
7:15 PM,53.6,12.2,19,30.29,10.0,Calm,Calm,-,N/A,,Scattered Clouds,0,2012-11-16 02:15:00
7:35 PM,50.0,10.4,20,30.29,10.0,Calm,Calm,-,N/A,,Scattered Clouds,0,2012-11-16 02:35:00
7:55 PM,50.0,10.4,20,30.29,10.0,NNW,6.9,-,N/A,,Partly Cloudy,330,2012-11-16 02:55:00
8:15 PM,50.0,12.2,22,30.29,10.0,North,6.9,-,N/A,,Scattered Clouds,360,2012-11-16 03:15:00
8:35 PM,50.0,14.0,24,30.30,10.0,NNW,8.1,-,N/A,,Scattered Clouds,340,2012-11-16 03:35:00
8:55 PM,53.6,14.0,21,30.30,10.0,North,4.6,-,N/A,,Clear,350,2012-11-16 03:55:00
9:15 PM,53.6,14.0,21,30.30,10.0,West,4.6,-,N/A,,Clear,270,2012-11-16 04:15:00
9:35 PM,51.8,14.0,22,30.31,10.0,West,3.5,-,N/A,,Clear,280,2012-11-16 04:35:00
9:55 PM,50.0,14.0,24,30.30,10.0,Calm,Calm,-,N/A,,Clear,0,2012-11-16 04:55:00
10:15 PM,53.6,14.0,21,30.30,10.0,North,6.9,-,N/A,,Clear,360,2012-11-16 05:15:00
10:35 PM,48.2,14.0,25,30.31,10.0,NNW,6.9,-,N/A,,Clear,340,2012-11-16 05:35:00
10:55 PM,48.2,12.2,24,30.31,10.0,North,5.8,-,N/A,,Clear,350,2012-11-16 05:55:00
11:15 PM,48.2,12.2,24,30.30,10.0,NNE,9.2,-,N/A,,Clear,20,2012-11-16 06:15:00
11:35 PM,50.0,14.0,24,30.30,10.0,NNE,6.9,-,N/A,,Clear,20,2012-11-16 06:35:00
11:55 PM,48.2,14.0,25,30.30,10.0,North,8.1,-,N/A,,Clear,10,2012-11-16 06:55:00